Time,TemperatureF,DewpointF,PressureIn,WindDirection,WindDirectionDegrees,WindSpeedMPH,WindSpeedGustMPH,Humidity,HourlyPrecipIn,Conditions,Clouds,dailyrainin,SoftwareType,DateUTC
2013-05-22 00:08:00,74.1,69.0,29.89,South,169,4.0,7.0,83,0.00,,,0.00,weatherlink.com 1.10,2013-05-22 04:08:00,
2013-05-22 00:23:00,73.8,69.0,29.89,South,174,2.0,7.0,84,0.00,,,0.00,weatherlink.com 1.10,2013-05-22 04:23:00,
2013-05-22 00:38:00,73.6,69.0,29.89,South,174,3.0,6.0,84,0.00,,,0.00,weatherlink.com 1.10,2013-05-22 04:38:00,
2013-05-22 00:53:00,73.5,68.0,29.89,South,174,4.0,6.0,84,0.00,,,0.00,weatherlink.com 1.10,2013-05-22 04:53:00,
2013-05-22 01:08:00,73.3,68.0,29.88,SSE,162,3.0,6.0,84,0.00,,,0.00,weatherlink.com 1.10,2013-05-22 05:08:00,
2013-05-22 01:23:00,73.4,68.0,29.87,SSW,192,3.0,6.0,84,0.00,,,0.00,weatherlink.com 1.10,2013-05-22 05:23:00,
2013-05-22 01:38:00,73.5,68.0,29.87,SE,129,3.0,7.0,84,0.00,,,0.00,weatherlink.com 1.10,2013-05-22 05:38:00,
2013-05-22 01:53:00,73.7,69.0,29.87,SSE,164,4.0,7.0,84,0.00,,,0.00,weatherlink.com 1.10,2013-05-22 05:53:00,
2013-05-22 02:08:00,73.6,69.0,29.87,WSW,253,4.0,8.0,84,0.00,,,0.00,weatherlink.com 1.10,2013-05-22 06:08:00,
2013-05-22 02:23:00,73.3,68.0,29.87,SSW,213,3.0,6.0,84,0.00,,,0.00,weatherlink.com 1.10,2013-05-22 06:23:00,
2013-05-22 02:38:00,73.0,68.0,29.87,South,174,1.0,6.0,85,0.00,,,0.00,weatherlink.com 1.10,2013-05-22 06:38:00,
2013-05-22 02:53:00,72.6,68.0,29.87,SSW,209,0.0,4.0,86,0.00,,,0.00,weatherlink.com 1.10,2013-05-22 06:53:00,
2013-05-22 03:08:00,72.1,68.0,29.87,South,170,0.0,2.0,87,0.00,,,0.00,weatherlink.com 1.10,2013-05-22 07:08:00,
2013-05-22 03:23:00,71.5,68.0,29.87,South,169,0.0,3.0,87,0.00,,,0.00,weatherlink.com 1.10,2013-05-22 07:23:00,
2013-05-22 03:38:00,71.1,68.0,29.87,SSE,160,1.0,4.0,89,0.00,,,0.00,weatherlink.com 1.10,2013-05-22 07:38:00,
2013-05-22 03:53:00,71.2,68.0,29.87,SSE,160,2.0,5.0,89,0.00,,,0.00,weatherlink.com 1.10,2013-05-22 07:53:00,
2013-05-22 04:08:00,71.1,68.0,29.87,SE,126,3.0,5.0,89,0.00,,,0.00,weatherlink.com 1.10,2013-05-22 08:08:00,
2013-05-22 04:23:00,71.1,68.0,29.86,ESE,115,3.0,3.0,89,0.00,,,0.00,weatherlink.com 1.10,2013-05-22 08:23:00,
2013-05-22 04:38:00,70.7,67.0,29.85,ESE,121,0.0,4.0,89,0.00,,,0.00,weatherlink.com 1.10,2013-05-22 08:38:00,
2013-05-22 04:53:00,70.2,67.0,29.86,WSW,253,1.0,2.0,89,0.00,,,0.00,weatherlink.com 1.10,2013-05-22 08:53:00,
2013-05-22 05:08:00,69.5,67.0,29.86,WSW,240,0.0,1.0,90,0.00,,,0.00,weatherlink.com 1.10,2013-05-22 09:08:00,
2013-05-22 05:24:00,68.6,66.0,29.87,WSW,252,0.0,2.0,92,0.00,,,0.00,weatherlink.com 1.10,2013-05-22 09:24:00,
2013-05-22 05:39:00,68.4,66.0,29.88,WSW,250,0.0,1.0,93,0.00,,,0.00,weatherlink.com 1.10,2013-05-22 09:39:00,
2013-05-22 05:54:00,68.4,66.0,29.88,SSW,205,0.0,1.0,93,0.00,,,0.00,weatherlink.com 1.10,2013-05-22 09:54:00,
2013-05-22 06:09:00,67.9,66.0,29.89,SE,129,1.0,1.0,92,0.00,,,0.00,weatherlink.com 1.10,2013-05-22 10:09:00,
2013-05-22 06:24:00,68.1,66.0,29.90,SSE,154,0.0,2.0,92,0.00,,,0.00,weatherlink.com 1.10,2013-05-22 10:24:00,
2013-05-22 06:39:00,69.2,67.0,29.90,SSE,149,1.0,2.0,92,0.00,,,0.00,weatherlink.com 1.10,2013-05-22 10:39:00,
2013-05-22 06:54:00,70.4,67.0,29.90,SSE,150,0.0,1.0,89,0.00,,,0.00,weatherlink.com 1.10,2013-05-22 10:54:00,
2013-05-22 07:09:00,72.1,68.0,29.91,South,170,1.0,3.0,87,0.00,,,0.00,weatherlink.com 1.10,2013-05-22 11:09:00,
2013-05-22 07:24:00,73.5,68.0,29.92,SSE,167,3.0,5.0,84,0.00,,,0.00,weatherlink.com 1.10,2013-05-22 11:24:00,
2013-05-22 07:39:00,74.7,69.0,29.92,SW,236,3.0,3.0,82,0.00,,,0.00,weatherlink.com 1.10,2013-05-22 11:39:00,
2013-05-22 07:54:00,75.4,69.0,29.92,SSE,167,1.0,7.0,79,0.00,,,0.00,weatherlink.com 1.10,2013-05-22 11:54:00,
2013-05-22 08:09:00,76.2,69.0,29.92,SW,215,2.0,7.0,78,0.00,,,0.00,weatherlink.com 1.10,2013-05-22 12:09:00,
2013-05-22 08:24:00,76.8,69.0,29.92,SSE,150,1.0,6.0,78,0.00,,,0.00,weatherlink.com 1.10,2013-05-22 12:24:00,
2013-05-22 08:39:00,77.2,69.0,29.92,SE,143,7.0,8.0,76,0.00,,,0.00,weatherlink.com 1.10,2013-05-22 12:39:00,
2013-05-22 08:54:00,78.7,69.0,29.93,South,176,4.0,6.0,72,0.00,,,0.00,weatherlink.com 1.10,2013-05-22 12:54:00,
2013-05-22 09:09:00,80.0,69.0,29.93,SSW,194,0.0,6.0,68,0.00,,,0.00,weatherlink.com 1.10,2013-05-22 13:09:00,
2013-05-22 09:24:00,81.1,68.0,29.93,West,263,0.0,8.0,65,0.00,,,0.00,weatherlink.com 1.10,2013-05-22 13:24:00,
2013-05-22 09:39:00,81.3,68.0,29.93,SE,124,3.0,10.0,64,0.00,,,0.00,weatherlink.com 1.10,2013-05-22 13:39:00,
2013-05-22 09:54:00,82.6,66.0,29.93,SW,221,2.0,8.0,57,0.00,,,0.00,weatherlink.com 1.10,2013-05-22 13:54:00,
2013-05-22 10:09:00,83.4,65.0,29.93,SSW,210,0.0,11.0,54,0.00,,,0.00,weatherlink.com 1.10,2013-05-22 14:09:00,
2013-05-22 10:24:00,83.9,66.0,29.93,SE,138,6.0,8.0,56,0.00,,,0.00,weatherlink.com 1.10,2013-05-22 14:24:00,
2013-05-22 10:39:00,83.5,65.0,29.92,SSE,164,5.0,8.0,54,0.00,,,0.00,weatherlink.com 1.10,2013-05-22 14:39:00,
2013-05-22 10:54:00,84.0,66.0,29.92,SSE,152,9.0,10.0,54,0.00,,,0.00,weatherlink.com 1.10,2013-05-22 14:54:00,
2013-05-22 11:09:00,85.7,63.0,29.92,SW,221,4.0,13.0,47,0.00,,,0.00,weatherlink.com 1.10,2013-05-22 15:09:00,
2013-05-22 11:24:00,84.4,62.0,29.92,WSW,256,2.0,9.0,47,0.00,,,0.00,weatherlink.com 1.10,2013-05-22 15:24:00,
2013-05-22 11:39:00,83.5,62.0,29.92,SSW,204,2.0,7.0,49,0.00,,,0.00,weatherlink.com 1.10,2013-05-22 15:39:00,
2013-05-22 11:54:00,85.1,64.0,29.92,SW,235,4.0,7.0,50,0.00,,,0.00,weatherlink.com 1.10,2013-05-22 15:54:00,
2013-05-22 12:09:00,85.9,64.0,29.92,SE,141,9.0,12.0,48,0.00,,,0.00,weatherlink.com 1.10,2013-05-22 16:09:00,
2013-05-22 12:24:00,85.1,64.0,29.91,SSE,162,3.0,12.0,49,0.00,,,0.00,weatherlink.com 1.10,2013-05-22 16:24:00,
2013-05-22 12:39:00,86.3,63.0,29.90,SW,218,2.0,13.0,45,0.00,,,0.00,weatherlink.com 1.10,2013-05-22 16:39:00,
2013-05-22 12:54:00,87.3,64.0,29.90,SSE,155,10.0,12.0,46,0.00,,,0.00,weatherlink.com 1.10,2013-05-22 16:54:00,
2013-05-22 13:09:00,87.5,62.0,29.89,SW,221,7.0,11.0,43,0.00,,,0.00,weatherlink.com 1.10,2013-05-22 17:09:00,
2013-05-22 13:24:00,87.7,64.0,29.89,East,96,4.0,12.0,46,0.00,,,0.00,weatherlink.com 1.10,2013-05-22 17:24:00,
2013-05-22 13:39:00,89.6,64.0,29.89,SSW,210,7.0,11.0,42,0.00,,,0.00,weatherlink.com 1.10,2013-05-22 17:39:00,
2013-05-22 13:54:00,88.9,62.0,29.88,SSE,154,1.0,11.0,41,0.00,,,0.00,weatherlink.com 1.10,2013-05-22 17:54:00,
2013-05-22 14:09:00,89.4,63.0,29.88,South,181,1.0,10.0,41,0.00,,,0.00,weatherlink.com 1.10,2013-05-22 18:09:00,
2013-05-22 14:24:00,89.0,65.0,29.87,SE,127,9.0,14.0,45,0.00,,,0.00,weatherlink.com 1.10,2013-05-22 18:24:00,
2013-05-22 14:39:00,89.2,64.0,29.87,ENE,77,3.0,11.0,43,0.00,,,0.00,weatherlink.com 1.10,2013-05-22 18:39:00,
2013-05-22 14:54:00,89.5,63.0,29.86,NNW,330,5.0,13.0,42,0.00,,,0.00,weatherlink.com 1.10,2013-05-22 18:54:00,
2013-05-22 15:09:00,89.3,65.0,29.85,SSE,153,6.0,14.0,45,0.00,,,0.00,weatherlink.com 1.10,2013-05-22 19:09:00,
2013-05-22 15:24:00,90.2,62.0,29.85,SSE,167,4.0,13.0,39,0.00,,,0.00,weatherlink.com 1.10,2013-05-22 19:24:00,
2013-05-22 15:39:00,89.2,65.0,29.84,SE,127,13.0,17.0,44,0.00,,,0.00,weatherlink.com 1.10,2013-05-22 19:39:00,
2013-05-22 15:54:00,89.1,64.0,29.84,SE,129,9.0,18.0,43,0.00,,,0.00,weatherlink.com 1.10,2013-05-22 19:54:00,
2013-05-22 16:09:00,89.0,64.0,29.83,SSW,204,11.0,17.0,44,0.00,,,0.00,weatherlink.com 1.10,2013-05-22 20:09:00,
2013-05-22 16:24:00,88.7,67.0,29.82,SSW,205,9.0,15.0,48,0.00,,,0.00,weatherlink.com 1.10,2013-05-22 20:24:00,
2013-05-22 16:40:00,87.1,67.0,29.82,SE,146,5.0,16.0,51,0.00,,,0.00,weatherlink.com 1.10,2013-05-22 20:40:00,
2013-05-22 16:55:00,87.9,66.0,29.82,South,189,6.0,16.0,48,0.00,,,0.00,weatherlink.com 1.10,2013-05-22 20:55:00,
2013-05-22 17:10:00,88.1,65.0,29.82,SE,132,7.0,19.0,47,0.00,,,0.00,weatherlink.com 1.10,2013-05-22 21:10:00,
2013-05-22 17:25:00,86.5,65.0,29.82,SSE,165,8.0,11.0,48,0.00,,,0.00,weatherlink.com 1.10,2013-05-22 21:25:00,
2013-05-22 17:40:00,85.4,65.0,29.82,SSE,160,6.0,11.0,51,0.00,,,0.00,weatherlink.com 1.10,2013-05-22 21:40:00,
2013-05-22 17:55:00,84.7,65.0,29.83,ENE,68,8.0,14.0,52,0.00,,,0.00,weatherlink.com 1.10,2013-05-22 21:55:00,
2013-05-22 18:10:00,84.2,66.0,29.84,East,98,11.0,11.0,54,0.00,,,0.00,weatherlink.com 1.10,2013-05-22 22:10:00,
2013-05-22 18:25:00,81.4,61.0,29.85,WSW,257,11.0,16.0,51,0.00,,,0.00,weatherlink.com 1.10,2013-05-22 22:25:00,
2013-05-22 18:40:00,77.1,62.0,29.88,SW,219,18.0,23.0,60,0.00,,,0.00,weatherlink.com 1.10,2013-05-22 22:40:00,
2013-05-22 18:55:00,72.6,62.0,29.88,West,281,6.0,16.0,70,0.00,,,0.00,weatherlink.com 1.10,2013-05-22 22:55:00,
2013-05-22 19:10:00,70.8,63.0,29.89,South,172,4.0,15.0,76,0.00,,,0.00,weatherlink.com 1.10,2013-05-22 23:10:00,
2013-05-22 19:25:00,70.3,63.0,29.88,South,184,0.0,4.0,78,0.00,,,0.00,weatherlink.com 1.10,2013-05-22 23:25:00,
2013-05-22 19:55:00,69.2,64.0,29.89,SE,143,0.0,6.0,84,0.00,,,0.00,weatherlink.com 1.10,2013-05-22 23:55:00,
2013-05-22 20:10:00,69.1,65.0,29.91,East,98,3.0,14.0,86,0.01,,,0.01,weatherlink.com 1.10,2013-05-23 00:10:00,
2013-05-22 20:25:00,68.3,64.0,29.89,WNW,300,0.0,4.0,86,0.04,,,0.04,weatherlink.com 1.10,2013-05-23 00:25:00,
2013-05-22 20:40:00,67.5,64.0,29.88,East,93,2.0,7.0,88,0.06,,,0.06,weatherlink.com 1.10,2013-05-23 00:40:00,
2013-05-22 20:55:00,67.6,64.0,29.89,SE,144,2.0,6.0,88,0.06,,,0.06,weatherlink.com 1.10,2013-05-23 00:55:00,
2013-05-22 21:10:00,67.6,64.0,29.89,NNW,342,0.0,2.0,88,0.05,,,0.06,weatherlink.com 1.10,2013-05-23 01:10:00,
2013-05-22 21:25:00,67.4,65.0,29.92,WSW,257,5.0,14.0,91,0.02,,,0.06,weatherlink.com 1.10,2013-05-23 01:25:00,
2013-05-22 21:40:00,67.8,65.0,29.93,WSW,239,3.0,6.0,91,0.00,,,0.06,weatherlink.com 1.10,2013-05-23 01:40:00,
2013-05-22 21:55:00,67.8,65.0,29.95,SW,222,1.0,8.0,89,0.00,,,0.06,weatherlink.com 1.10,2013-05-23 01:55:00,
2013-05-22 22:10:00,68.5,64.0,29.96,WSW,241,3.0,14.0,85,0.00,,,0.06,weatherlink.com 1.10,2013-05-23 02:10:00,
2013-05-22 22:25:00,67.8,64.0,29.96,SSW,210,3.0,8.0,87,0.00,,,0.06,weatherlink.com 1.10,2013-05-23 02:25:00,
2013-05-22 22:40:00,67.1,65.0,29.94,ESE,102,1.0,5.0,91,0.06,,,0.12,weatherlink.com 1.10,2013-05-23 02:40:00,
2013-05-22 22:55:00,66.6,64.0,29.93,ESE,116,4.0,5.0,92,0.10,,,0.16,weatherlink.com 1.10,2013-05-23 02:55:00,
2013-05-22 23:10:00,66.6,64.0,29.92,SE,131,0.0,4.0,92,0.11,,,0.17,weatherlink.com 1.10,2013-05-23 03:10:00,
2013-05-22 23:26:00,66.3,64.0,29.90,SSW,198,0.0,3.0,93,0.10,,,0.17,weatherlink.com 1.10,2013-05-23 03:26:00,
2013-05-22 23:41:00,66.1,64.0,29.89,ENE,77,2.0,3.0,93,0.05,,,0.17,weatherlink.com 1.10,2013-05-23 03:41:00,
2013-05-22 23:56:00,66.2,64.0,29.90,SSE,160,1.0,3.0,92,0.01,,,0.17,weatherlink.com 1.10,2013-05-23 03:56:00,